Location: Cartignies
(50.0929°N, 3.8447°E)
Time: 14:30:39
(UTC+00:00)

IRAS Rocket - Pass Details

Date: 12 January 2026
Orbit: 846 x 875 km, 100.1° (Epoch: 16 February)

Event Time Altitude Azimuth Distance (km) Brightness Sun altitude
Rises 17:45:57 0° 141° (SE) 3,406 7.1 -15.3°
Reaches altitude 10° 17:48:23 10° 135° (SE) 2,478 6.3 -15.6°
Maximum altitude 17:53:35 46° 64° (ENE) 1,138 4.4 -16.5°
Drops below altitude 10° 17:58:52 10° 352° (N) 2,511 6.6 -17.3°
Sets 18:01:20 0° 347° (NNW) 3,457 7.4 -17.7°
